Regional Weather Roundup
Issued by NWS

Home | Current Version | Previous Version | Graphics & Text | Print | Product List | Glossary On
Versions: 1 2 3 4 5 6 7 8 9 10 11 12 13 14 15 16 17 18 19 20 21 22 23 24 25 26 27 28 29 30 31 32 33 34 35 36 37 38 39 40 41 42 43 44 45 46 47 48 49 50
000
ASUS43 KOAX 222102
RWRNE

WEATHER ROUNDUP FOR NEBRASKA
NATIONAL WEATHER SERVICE OMAHA NE
400 PM CDT MON SEP 22 2014

NOTES: SATELLITE DATA IS BEING USED TO AUGMENT CLOUD COVER ABOVE
       12000 FEET.
       "FAIR" INDICATES FEW OR NO CLOUDS BELOW 12,000 FEET WITH NO
       SIGNIFICANT WEATHER AND/OR OBSTRUCTIONS TO VISIBILITY.

  * THESE STATIONS DO NOT REPORT WEATHER SUCH AS RAIN...SNOW OR FOG.

NEZ001>004-019>022-054>056-222200-
NEBRASKA PANHANDLE

CITY           SKY/WX    TMP DP  RH WIND       PRES   REMARKS
SCOTTSBLUFF    LGT RAIN  65  56  72 W23G37    30.09R
ALLIANCE       PTSUNNY   73  55  53 S22G28    30.07F
CHADRON        CLOUDY    74  55  51 S15       29.99F
KIMBALL        MOSUNNY   74  51  44 S14G22    30.10F
SIDNEY         PTSUNNY   76  55  48 S16G30    30.10F
$$

NEZ057>060-069>072-079>082-222200-
SOUTHWEST NEBRASKA

CITY           SKY/WX    TMP DP  RH WIND       PRES   REMARKS
NORTH PLATTE   LGT RAIN  61  53  75 SE7       30.16F
IMPERIAL       CLOUDY    69  55  60 SE18      30.11F
LEXINGTON      CLOUDY    72  48  42 S15       30.18F
MCCOOK         CLOUDY    76  45  33 SE14      30.14F
OGALLALA       CLOUDY    63  58  83 E7        30.12F
$$

NEZ005>010-023>029-035>040-094-222200-
NORTH CENTRAL NEBRASKA

CITY           SKY/WX    TMP DP  RH WIND       PRES   REMARKS
VALENTINE      CLOUDY    70  48  45 S21G30    30.09F
AINSWORTH      CLOUDY    69  47  46 S12G17    30.12F
BROKEN BOW     CLOUDY    72  47  40 S16G25    30.17F
O`NEILL        PTSUNNY   74  51  44 S16       30.16F
ORD            PTSUNNY   73  49  42 S12G20    30.16F
$$

NEZ041-046>049-061>064-073>077-083>087-222200-
SOUTH CENTRAL NEBRASKA

CITY           SKY/WX    TMP DP  RH WIND       PRES   REMARKS
GRAND ISLAND   MOSUNNY   73  49  42 S13       30.20F
AURORA         MOSUNNY   73  45  37 S8        30.20F
HASTINGS       MOSUNNY   73  45  36 S12       30.21F
HEBRON         MOSUNNY   75  43  31 S5        30.22F
HOLDREGE       PTSUNNY   72  46  40 SE9       30.19F
KEARNEY *      PTSUNNY   73  48  40 SE15      30.19F
$$

NEZ011>018-030>034-042>045-222200-
NORTHEAST NEBRASKA

CITY           SKY/WX    TMP DP  RH WIND       PRES   REMARKS
NORFOLK        PTSUNNY   74  48  39 S10       30.19F
ALBION         PTSUNNY   73  47  40 S12       30.20F
BLAIR          SUNNY     74  48  40 S6        30.22F
COLUMBUS *     PTSUNNY   73  46  38 S10       30.22F
FREMONT        MOSUNNY   73  46  38 S5        30.22F
TEKAMAH        MOSUNNY   76  47  35 S9        30.21F
WAYNE          MOSUNNY   74  49  40 S10       30.20F
$$

NEZ050>053-065>068-078-088>093-222200-
SOUTHEAST NEBRASKA

CITY           SKY/WX    TMP DP  RH WIND       PRES   REMARKS
LINCOLN        MOSUNNY   74  46  36 S9        30.22F
OMAHA EPPLEY   MOSUNNY   73  48  41 S6        30.22F
BEATRICE       MOSUNNY   74  46  36 S7        30.23F
FALLS CITY     SUNNY     75  48  38 CALM      30.22F
NEBRASKA CITY    N/A     73  38  28 S6        30.23F
PLATTSMOUTH    SUNNY     73  47  40 E7        30.22F
$$

NEZ044-045-051>053-067-222200-
OMAHA AREA

CITY           SKY/WX    TMP DP  RH WIND       PRES   REMARKS
OMAHA EPPLEY   MOSUNNY   73  48  41 S6        30.22F
BLAIR          SUNNY     74  48  40 S6        30.22F
FREMONT        MOSUNNY   73  46  38 S5        30.22F
MILLARD        SUNNY     73  50  43 S3        30.21F
OFFUTT AFB     SUNNY     73  53  49 VRB6      30.22F
PLATTSMOUTH    SUNNY     73  47  40 E7        30.22F
WAHOO          FAIR      73  43  34 S8        30.22F
$$


USA.gov is the U.S. government's official web portal to all federal, state and local government web resources and services.